Regional Weather Roundup
Issued by NWS

Home | Current Version | Previous Version | Graphics & Text | Print | Product List | Glossary On
Versions: 1 2 3 4 5 6 7 8 9 10 11 12 13 14 15 16 17 18 19 20 21 22 23 24 25 26 27 28 29 30 31 32 33 34 35 36 37 38 39 40 41 42 43 44 45 46 47 48 49 50
000
ASUS43 KLOT 201410
RWRIL

ILLINOIS REGIONAL WEATHER ROUNDUP
NATIONAL WEATHER SERVICE CHICAGO/ROMEOVILLE IL
900 AM CDT SUN APR 20 2014

NOTE: "FAIR" INDICATES FEW OR NO CLOUDS BELOW 12,000 FEET WITH NO
SIGNIFICANT WEATHER AND/OR OBSTRUCTIONS TO VISIBILITY.

* THESE STATIONS ARE NOT UNDER NWS QUALITY CONTROL. THEY ALSO MAY NOT
  REPORT WEATHER SUCH AS PRECIPITATION OR FOG.

ILZ001-002-007-009-015-016-024-201500-
NORTHWEST ILLINOIS

CITY           SKY/WX    TMP DP  RH WIND       PRES   REMARKS
MOLINE         MOSUNNY   65  39  38 S13       30.14R
STERLING*      MOSUNNY   61  41  48 S8        30.16F
SAVANNA*       CLOUDY    59  39  48 S10       30.15S
$$

ILZ003-004-008-010-011-017-018-201500-
NORTH CENTRAL ILLINOIS

CITY           SKY/WX    TMP DP  RH WIND       PRES   REMARKS
ROCKFORD       PTSUNNY   56  38  50 S12       30.19F
FREEPORT*      CLOUDY    59  43  55 S15       30.17F
ROCHELLE*      MOSUNNY   56  38  51 S14       30.18F
DE KALB*       SUNNY     53  36  53 S15G22    30.21S
PERU*          SUNNY     57  40  52 S6        30.19F
$$

ILZ005-006-012>014-019>023-201500-
NORTHEAST ILLINOIS

CITY           SKY/WX    TMP DP  RH WIND       PRES   REMARKS
CHICAGO-OHARE  PTSUNNY   57  31  37 S12       30.21F
CHICAGO-MIDWAY PTSUNNY   57  32  38 S10       30.22F
AURORA         SUNNY     55  36  48 S14G22    30.21F
LANSING*       MOSUNNY   55  32  41 S10       30.24F
WAUKEGAN       PTSUNNY   56  31  38 S12       30.20F
DUPAGE AIRPORT SUNNY     56  34  43 S15       30.21F
KANKAKEE*      MOSUNNY   51  37  58 SE8       30.24F
WHEELING       MOSUNNY   56  33  42 S10       30.22F
MORRIS*        SUNNY     57  32  38 S10       30.21F
ROMEOVILLE*    SUNNY     55  34  44 S12       30.22F
NORTHERLY ISL    N/A     55  30  38 SW13        N/A
$$

LMZ740>746-201500-
SOUTHERN LAKE MICHIGAN

STATION/POSITION SKY/WX   TEMP    WIND        PRES    VSBY  WAVE
                          AIR SEA DIR/SP/G                  HT/PER
                          (F)     (DEG/KT/KT) (MB)    (MI)  (FT/S)
WAUKEGAN HARBOR            47     160/ 11/ 11 1024.0F
HARRISON CRIB              49     160/ 13/ 15   N/A
BURNHAM HARBOR             56     200/ 10/ 12   N/A
CALUMET HARBOR             54     180/  9/ 13 1024.2F
MICHIGAN CITY              51     140/ 10/ 14   N/A
$$

ILZ025>027-034>036-040-047-049-050-058-095>099-201500-
WEST-CENTRAL ILLINOIS

CITY           SKY/WX    TMP DP  RH WIND       PRES   REMARKS
QUINCY         PTSUNNY   65  43  44 S12       30.16S
GALESBURG*     SUNNY     63  43  48 S14       30.16S
MACOMB*        MOSUNNY   62  42  48 S12       30.19R
JACKSONVILLE*  MOSUNNY   65  39  38 S9        30.19F
PITTSFIELD*    MOSUNNY   66  43  43 S8        30.18S
$$

ILZ028>032-037-038-041>044-048-051>054-059>061-201500-
CENTRAL ILLINOIS

CITY           SKY/WX    TMP DP  RH WIND       PRES   REMARKS
PONTIAC        SUNNY     63  39  42 S15       30.21F
BLOOMINGTON    MOSUNNY   58  38  47 S16       30.21F
DECATUR        MOSUNNY   63  41  44 S13       30.22F
PEORIA         SUNNY     62  40  44 S14       30.19F
LACON*         SUNNY     61  40  46 S10       30.18S
LINCOLN*       MOSUNNY   62  40  45 S10       30.20F
SPRINGFIELD    MOSUNNY   63  40  42 S15       30.20F
TAYLORVILLE    MOSUNNY   61  41  48 SE14      30.21F
$$

ILZ033-039-045-046-055>057-062-063-201500-
EAST-CENTRAL ILLINOIS

CITY           SKY/WX    TMP DP  RH WIND       PRES   REMARKS
CHAMPAIGN      MOSUNNY   59  39  47 SE12      30.23F
RANTOUL*       MOSUNNY   60  38  45 CALM      30.24S
MATTOON        MOSUNNY   59  40  49 S10       30.23S
PARIS*         PTSUNNY   58  42  54 SE6       30.25F
$$

ILZ079-100>102-201500-
SOUTHWEST ILLINOIS

CITY           SKY/WX    TMP DP  RH WIND       PRES   REMARKS
BELLEVILLE     SUNNY     62  47  58 SE6       30.20F
CAHOKIA*       SUNNY     64  47  53 S6        30.20S
SPARTA*        SUNNY     59  45  58 CALM      30.22S
$$

ILZ064>066-069>071-074>076-080>082-084>086-088>090-092>094-201500-
SOUTH-CENTRAL ILLINOIS

CITY           SKY/WX    TMP DP  RH WIND       PRES   REMARKS
CARBONDALE     SUNNY     61  47  59 SE5       30.21F
CAIRO*         MOSUNNY   66  47  51 E3        30.22S
MARION         MOSUNNY   64  43  45 SE9       30.22F
MT. VERNON     MOSUNNY   61  39  44 SE5       30.24S
CENTRALIA*       N/A     63  40  43 CALM      30.22F
SALEM*         SUNNY     61  43  51 SE7       30.23S
METROPOLIS*    SUNNY     64  38  39 SE6       30.22S
$$

ILZ067-068-072-073-078-083-087-091-201500-
SOUTHEAST ILLINOIS

CITY           SKY/WX    TMP DP  RH WIND       PRES   REMARKS
FAIRFIELD*     MOSUNNY   63  46  55 S3        30.23S
HARRISBURG*    MOSUNNY   62  45  54 SE3       30.24F
ROBINSON*      MOSUNNY   61  45  56 SE5       30.26S
CARMI*         MOSUNNY   62  45  53 SE7       30.24S
$$

ABBREVIATIONS USED IN REMARKS
   TC - TEMPERATURE IN CELSIUS
  WCI - WIND CHILL INDEX
   HX - HEAT INDEX
  VSB - VISIBILITY
$$




USA.gov is the U.S. government's official web portal to all federal, state and local government web resources and services.